Location: Blue Sky Observatory
(43.1153°N, 70.9036°W)
Time: 21:51:36
(UTC-04:00)

Amateur Radio Satellites - All Passes

Search period start: 27 May 2015 21:21
Search period end: 28 May 2015 21:21
Location: Blue Sky Observatory, 43.1153°N, 70.9036°W

Satellite Date Start Highest point End Downlink Frequencies (MHz)
Time Altitude Azimuth
Oscar 11 27 May 21:25:10 21:29:30 78° 77° (ENE) 21:33:51 145.826/435.025
DX 1 27 May 21:25:34 21:29:01 24° 67° (ENE) 21:32:33 434.975-435.025
AIST 1 27 May 21:28:58 21:32:47 31° 286° (WNW) 21:36:36
Cosmos 2491 27 May 21:32:09 21:39:08 24° 298° (WNW) 21:45:51 435.465 / 435.565
SEEDS 27 May 21:36:52 21:40:25 25° 266° (W) 21:43:56 437.485
GOMX 1 27 May 21:39:17 21:43:01 19° 272° (W) 21:46:42 467.674
BRITE-PL 27 May 21:42:52 21:44:59 12° 277° (W) 21:46:50 437.365/2234.400
VELOX 1 27 May 21:43:16 21:46:18 19° 65° (ENE) 21:49:29 145.980
50 SAT 27 May 21:48:56 21:51:52 20° 68° (ENE) 21:54:52 437.505
COMPASS 1 27 May 21:48:59 21:52:24 23° 267° (W) 21:55:43 437.405
ESTCUBE 1 27 May 21:50:17 21:52:26 14° 62° (ENE) 21:54:45 437.505/2401.250
AAUSAT CUBESAT 2 27 May 22:00:43 22:03:53 20° 268° (W) 22:06:57 437.432
UWE-3 27 May 22:01:34 22:06:13 61° 259° (W) 22:10:52 435.000/436.395/437.385
GONETS M04 27 May 22:03:27 22:05:59 12° 50° (NE) 22:09:09
CINEMA 3 27 May 22:07:11 22:11:23 26° 268° (W) 22:15:34 145.822/145.860
Cosmos 2504 27 May 22:07:43 22:14:35 48° 269° (W) 22:21:23 435.465 / 435.565
FUNcube-1 27 May 22:09:29 22:14:03 64° 259° (W) 22:18:36 145.935
ANTELSAT 27 May 22:11:36 22:13:24 13° 88° (E) 22:15:25 437.575/2403.000
AISAT 27 May 22:13:57 22:18:03 39° 70° (ENE) 22:22:15 437.250
ISS 27 May 22:21:26 22:23:16 15° 133° (SE) 22:25:11 145.825
DELFI C3 27 May 22:21:43 22:25:21 32° 264° (W) 22:28:59 145.870
DANDE 27 May 22:31:11 22:36:16 19° 54° (NE) 22:41:03 436.750
HO-68 27 May 22:36:04 22:39:27 13° 276° (W) 22:42:17 435.675
HUMSAT D 27 May 22:37:48 22:42:06 65° 259° (W) 22:46:23 437.325/437.525
TIGRISAT 27 May 22:42:36 22:46:16 26° 94° (E) 22:49:56 435.000
UKube-1 27 May 22:50:50 22:55:01 46° 261° (W) 22:59:12 .
ZACube-1 27 May 22:51:27 22:55:14 24° 267° (W) 22:58:55 437.345
CUBEBUG 2 27 May 22:54:32 22:57:36 16° 271° (W) 23:00:29 437.445
QB50P1 27 May 22:55:22 22:58:08 17° 91° (E) 23:01:01 145.935-145.965
CUSAT 1 27 May 22:56:32 23:02:49 31° 63° (ENE) 23:08:03 437.405
POLYITAN 1 27 May 22:57:43 23:00:39 18° 91° (E) 23:03:43 437.675
DX 1 27 May 23:01:08 23:05:08 34° 263° (W) 23:09:06 434.975-435.025
UNISAT 6 27 May 23:03:04 23:07:17 45° 98° (E) 23:11:25 437.425
CUBEBUG 1 27 May 23:13:46 23:18:08 82° 77° (ENE) 23:22:34 437.445
VELOX 1 27 May 23:18:18 23:22:34 46° 261° (W) 23:26:52 145.980
50 SAT 27 May 23:22:44 23:26:24 33° 263° (W) 23:30:01 437.505
ESTCUBE 1 27 May 23:24:21 23:28:48 68° 259° (WSW) 23:33:18 437.505/2401.250
NANOSAT C BR1 27 May 23:25:31 23:29:27 35° 97° (E) 23:33:23 145.865
QB50P2 27 May 23:34:05 23:38:13 45° 98° (E) 23:42:19 145.880/145.840
POPSAT HIP 1 27 May 23:46:04 23:50:19 61° 101° (E) 23:54:31 437.405
ANTELSAT 27 May 23:46:23 23:50:44 60° 286° (WNW) 23:54:57 437.575/2403.000
DUCHIFAT 1 27 May 23:47:14 23:51:29 61° 101° (E) 23:55:41 145.980
PCSat 27 May 23:47:49 23:51:42 21° 108° (ESE) 23:55:47 145.827
SPROUT 27 May 23:49:18 23:53:31 55° 73° (ENE) 23:57:47 437.525
AISAT 27 May 23:51:23 23:54:49 21° 268° (W) 23:58:10 437.250
ISS 27 May 23:56:06 23:59:20 72° 329° (NNW) 00:02:36 145.825
GONETS M04 27 May 23:56:48 00:05:25 57° 75° (ENE) 00:14:00
BEESAT 28 May 00:00:40 00:01:51 11° 59° (ENE) 00:03:17 436.000
BUGSAT 1 28 May 00:06:15 00:10:32 69° 102° (ESE) 00:14:46 437.445
SWISSCUBE 28 May 00:07:58 00:10:22 14° 61° (ENE) 00:12:58 437.505
TISAT 1 28 May 00:09:02 00:13:15 67° 75° (ENE) 00:17:32 437.305
DANDE 28 May 00:13:09 00:21:08 86° 77° (ENE) 00:27:21 436.750
TIGRISAT 28 May 00:19:13 00:23:02 29° 292° (WNW) 00:26:43 435.000
QB50P1 28 May 00:30:10 00:34:16 43° 288° (WNW) 00:38:18 145.935-145.965
POLYITAN 1 28 May 00:32:45 00:36:47 40° 289° (WNW) 00:40:46 437.675
CUSAT 1 28 May 00:39:02 00:45:56 48° 269° (W) 00:51:16 437.405
O/OREOS (USA 219) 28 May 00:40:25 00:44:28 33° 59° (ENE) 00:48:33 437.305
UNISAT 6 28 May 00:40:43 00:43:45 18° 295° (WNW) 00:46:37 437.425
Cosmos 2499 28 May 00:41:52 00:46:25 18° 62° (ENE) 00:51:17 435.465 / 435.565
NANOSAT C BR1 28 May 01:01:47 01:05:07 22° 293° (WNW) 01:08:20 145.865
QB50P2 28 May 01:10:53 01:13:48 18° 295° (WNW) 01:16:34 145.880/145.840
VERMONT LUNAR 28 May 01:18:25 01:20:42 18° 155° (SSE) 01:23:02 437.305
POPSAT HIP 1 28 May 01:23:27 01:25:44 14° 297° (WNW) 01:27:51 437.405
DUCHIFAT 1 28 May 01:24:36 01:26:50 14° 297° (WNW) 01:28:55 145.980
KKS-1 28 May 01:24:52 01:27:00 14° 62° (ENE) 01:29:20 437.445
ITUPSAT 1 28 May 01:27:14 01:31:58 72° 74° (ENE) 01:36:44 437.325
SPROUT 28 May 01:27:36 01:30:01 14° 271° (W) 01:32:14 437.525
PCSat 28 May 01:29:24 01:34:44 58° 305° (NW) 01:40:07 145.827
BEESAT 2 28 May 01:31:21 01:34:20 19° 41° (NE) 01:37:21 435.950
ISS 28 May 01:33:34 01:36:10 21° 348° (NNW) 01:38:46 145.825
BEESAT 28 May 01:34:15 01:39:01 86° 76° (ENE) 01:43:49 436.000
SWISSCUBE 28 May 01:42:58 01:47:42 72° 258° (WSW) 01:52:29 437.505
BUGSAT 1 28 May 01:43:35 01:45:29 12° 297° (WNW) 01:47:13 437.445
TISAT 1 28 May 01:48:09 01:49:35 11° 273° (W) 01:50:45 437.305
SO-50 28 May 01:48:38 01:50:33 13° 108° (ESE) 01:52:44 436.795
GONETS M04 28 May 01:54:19 02:01:54 33° 275° (W) 02:09:12
DANDE 28 May 01:58:14 02:03:06 18° 282° (WNW) 02:07:05 436.750
PHONESAT 2.4 28 May 01:59:42 02:01:19 13° 150° (SSE) 02:03:00 2401.200-2431.200
Oscar 19 28 May 02:04:56 02:10:02 58° 100° (E) 02:15:06 437.125/150
BEESAT 3 28 May 02:18:28 02:22:30 56° 53° (NE) 02:26:28 437.485
O/OREOS (USA 219) 28 May 02:20:05 02:23:46 25° 256° (WSW) 02:27:23 437.305
ITAMSAT 1 28 May 02:21:43 02:25:56 25° 93° (E) 02:30:16 435.822/435.867
STARS 28 May 02:24:30 02:28:27 33° 69° (ENE) 02:32:29 437.465
Cosmos 2499 28 May 02:33:30 02:40:35 80° 265° (W) 02:47:45 435.465 / 435.565
VERMONT LUNAR 28 May 02:54:25 02:57:30 45° 171° (S) 03:00:36 437.305
KKS-1 28 May 02:58:40 03:03:09 69° 258° (WSW) 03:07:39 437.445
MOZHAYETS 4 28 May 03:01:58 03:03:26 12° 61° (ENE) 03:05:07
Gurwin Techsat 1B 28 May 03:04:52 03:10:07 59° 101° (E) 03:15:23 435.225
AIST 2 28 May 03:05:11 03:09:14 42° 50° (NE) 03:13:13 435.215
ITUPSAT 1 28 May 03:08:20 03:10:29 12° 272° (W) 03:12:21 437.325
BEESAT 2 28 May 03:08:44 03:12:46 54° 240° (WSW) 03:16:42 435.950
ISS 28 May 03:10:56 03:13:24 19° 8° (N) 03:15:52 145.825
AO-7 28 May 03:15:05 03:19:43 16° 86° (E) 03:24:52 29.400- 29.500
PCSat 28 May 03:16:51 03:19:26 13° 327° (NNW) 03:21:51 145.827
BEESAT 28 May 03:17:04 03:17:38 10° 274° (W) 03:17:51 436.000
SO-50 28 May 03:25:45 03:30:28 81° 305° (NW) 03:35:21 436.795
PHONESAT 2.4 28 May 03:35:39 03:38:54 38° 165° (SSE) 03:42:10 2401.200-2431.200
HORYU 2 28 May 03:42:33 03:46:00 22° 93° (E) 03:49:32 437.375
Oscar 19 28 May 03:45:18 03:49:00 20° 297° (WNW) 03:52:31 437.125/150
BEESAT 3 28 May 03:57:47 04:00:05 14° 249° (WSW) 04:02:11 437.485
ITAMSAT 1 28 May 04:00:43 04:05:39 43° 291° (WNW) 04:10:32 435.822/435.867
STARS 28 May 04:01:17 04:04:58 25° 266° (W) 04:08:36 437.465
JAS-2 28 May 04:18:03 04:23:04 49° 99° (E) 04:28:15 435.910
Cosmos 2499 28 May 04:29:49 04:32:41 12° 281° (WNW) 04:35:04 435.465 / 435.565
VERMONT LUNAR 28 May 04:31:23 04:34:30 48° 188° (S) 04:37:36 437.305
MOZHAYETS 4 28 May 04:35:29 04:40:05 83° 259° (W) 04:44:40
CUBESAT XI-V 28 May 04:43:58 04:45:14 11° 61° (ENE) 04:46:45 437.345
AIST 2 28 May 04:44:22 04:47:34 21° 247° (WSW) 04:50:38 435.215
Gurwin Techsat 1B 28 May 04:45:51 04:49:42 20° 297° (WNW) 04:53:24 435.225
ISS 28 May 04:47:10 04:50:22 49° 27° (NNE) 04:53:33 145.825
AO-7 28 May 05:05:32 05:13:58 82° 107° (ESE) 05:22:22 29.400- 29.500
SO-50 28 May 05:08:46 05:11:51 16° 326° (NW) 05:14:51 436.795
PHONESAT 2.4 28 May 05:13:22 05:16:47 55° 182° (S) 05:20:12 2401.200-2431.200
HORYU 2 28 May 05:18:42 05:22:46 35° 290° (WNW) 05:26:46 437.375
PRISM 28 May 05:36:02 05:38:26 16° 65° (ENE) 05:41:01 437.425
Cosmos 2491 28 May 05:41:47 05:49:59 42° 70° (ENE) 05:58:14 435.465 / 435.565
M-CUBED/EXP-1 PRIME 28 May 05:51:27 05:53:57 16° 62° (ENE) 05:56:27 437.505
AUBIESAT-1 28 May 05:58:26 06:00:57 17° 62° (ENE) 06:03:29 437.475
JAS-2 28 May 06:04:05 06:07:58 21° 296° (WNW) 06:11:46 435.910
VERMONT LUNAR 28 May 06:08:51 06:11:19 20° 204° (SSW) 06:13:46 437.305
CUBESAT XI-V 28 May 06:17:27 06:22:03 87° 258° (WSW) 06:26:42 437.345
CUTE-I 28 May 06:21:58 06:26:35 29° 94° (E) 06:31:17 437.470
ISS 28 May 06:23:57 06:26:37 23° 224° (SW) 06:29:14 145.825
STRAND 1 28 May 06:26:53 06:31:47 52° 71° (ENE) 06:36:46 437.568
YUBILEINY 28 May 06:34:33 06:42:06 35° 86° (E) 06:49:49 435.215
Cubesat XI-IV 28 May 06:42:37 06:47:45 45° 98° (E) 06:52:55 437.490
PHONESAT 2.4 28 May 06:51:30 06:54:38 32° 198° (SSW) 06:57:45 2401.200-2431.200
AO-7 28 May 06:59:23 07:05:59 26° 306° (NW) 07:12:22 29.400- 29.500
PRISM 28 May 07:09:37 07:13:34 47° 260° (W) 07:17:32 437.425
M-CUBED/EXP-1 PRIME 28 May 07:24:32 07:28:35 46° 255° (WSW) 07:32:20 437.505
AUBIESAT-1 28 May 07:31:33 07:35:32 44° 255° (WSW) 07:39:13 437.475
AIST 1 28 May 07:34:19 07:38:42 68° 80° (E) 07:43:04
Cosmos 2491 28 May 07:38:41 07:47:01 46° 271° (W) 07:55:09 435.465 / 435.565
RS-15 28 May 07:59:15 08:08:48 39° 109° (ESE) 08:18:46 29.354- 29.394
GOMX 1 28 May 08:01:47 08:05:16 18° 87° (E) 08:08:50 467.674
CUTE-I 28 May 08:01:49 08:06:46 38° 292° (WNW) 08:11:40 437.470
BRITE-PL 28 May 08:04:50 08:09:47 31° 92° (E) 08:14:34 437.365/2234.400
STRAND 1 28 May 08:07:39 08:11:22 20° 269° (W) 08:14:58 437.568
HO-68 28 May 08:11:10 08:15:55 19° 89° (E) 08:20:58 435.675
Cubesat XI-IV 28 May 08:23:14 08:27:39 26° 295° (WNW) 08:31:57 437.490
YUBILEINY 28 May 08:30:08 08:38:40 53° 285° (WNW) 08:47:10 435.215
PCSat 28 May 08:33:27 08:37:51 25° 44° (NE) 08:42:20 145.827
Cosmos 2504 28 May 08:54:29 09:00:56 27° 85° (E) 09:07:18 435.465 / 435.565
DOVE 4 28 May 08:55:22 09:00:04 36° 95° (E) 09:04:32 437.250
CANX-2 28 May 08:55:42 08:59:33 34° 96° (E) 09:03:25 2200.000
CUTE 1.7 + AOD 2 28 May 08:59:03 09:02:54 34° 96° (E) 09:06:45 437.475
CUBEBUG 2 28 May 09:09:16 09:09:57 10° 85° (E) 09:10:55 437.445
ANTELSAT 28 May 09:11:23 09:14:02 16° 64° (ENE) 09:16:51 437.575/2403.000
Oscar 11 28 May 09:13:20 09:15:14 13° 88° (E) 09:17:21 145.826/435.025
AIST 1 28 May 09:14:35 09:15:50 11° 276° (W) 09:16:49
SEEDS 28 May 09:19:25 09:23:28 47° 99° (E) 09:27:30 437.485
COMPASS 1 28 May 09:30:27 09:34:30 50° 99° (E) 09:38:33 437.405
GOMX 1 28 May 09:38:36 09:43:55 60° 287° (WNW) 09:48:56 467.674
AAUSAT CUBESAT 2 28 May 09:41:24 09:45:29 57° 100° (E) 09:49:33 437.432
TIGRISAT 28 May 09:42:01 09:46:01 29° 69° (ENE) 09:50:02 435.000
BRITE-PL 28 May 09:43:06 09:48:21 39° 291° (WNW) 09:53:20 437.365/2234.400
QB50P1 28 May 09:49:35 09:52:08 16° 64° (ENE) 09:54:51 145.935-145.965
UWE-3 28 May 09:51:23 09:54:56 25° 93° (E) 09:58:29 435.000/436.395/437.385
POLYITAN 1 28 May 09:52:07 09:54:53 17° 65° (ENE) 09:57:48 437.675
HO-68 28 May 09:57:22 10:04:33 80° 288° (WNW) 10:11:41 435.675
FUNcube-1 28 May 09:57:51 10:01:10 22° 92° (E) 10:04:31 145.935
DELFI C3 28 May 09:59:48 10:03:18 29° 95° (E) 10:06:51 145.870
CINEMA 3 28 May 10:00:34 10:05:20 79° 102° (ESE) 10:09:49 145.822/145.860
UNISAT 6 28 May 10:02:31 10:07:00 47° 72° (ENE) 10:11:28 437.425
RS-15 28 May 10:09:50 10:20:40 65° 311° (NW) 10:31:52 29.354- 29.394
PCSat 28 May 10:16:21 10:21:42 59° 244° (WSW) 10:27:00 145.827
SO-50 28 May 10:16:34 10:20:20 21° 38° (NE) 10:24:10 436.795
NANOSAT C BR1 28 May 10:19:01 10:22:46 31° 69° (ENE) 10:26:35 145.865
HUMSAT D 28 May 10:21:57 10:24:48 18° 91° (E) 10:27:46 437.325/437.525
QB50P2 28 May 10:27:50 10:31:49 39° 71° (ENE) 10:35:52 145.880/145.840
CANX-2 28 May 10:32:04 10:35:19 21° 293° (WNW) 10:38:28 2200.000
DOVE 4 28 May 10:33:19 10:37:40 28° 294° (WNW) 10:41:46 437.250
CUTE 1.7 + AOD 2 28 May 10:35:22 10:38:39 22° 292° (WNW) 10:41:50 437.475
YUBILEINY 28 May 10:36:21 10:38:14 10° 311° (NW) 10:39:26 435.215
UKube-1 28 May 10:37:36 10:41:14 26° 95° (E) 10:44:56 .
ZACube-1 28 May 10:38:21 10:42:39 63° 100° (E) 10:46:51 437.345
POPSAT HIP 1 28 May 10:39:32 10:43:42 51° 73° (ENE) 10:47:55 437.405
DUCHIFAT 1 28 May 10:40:18 10:44:26 51° 73° (ENE) 10:48:38 145.980
CUBEBUG 2 28 May 10:42:53 10:47:21 74° 285° (WNW) 10:51:38 437.445
Cosmos 2504 28 May 10:45:41 10:53:55 62° 282° (WNW) 11:01:34 435.465 / 435.565
ANTELSAT 28 May 10:45:44 10:50:23 63° 259° (W) 10:54:59 437.575/2403.000
Oscar 11 28 May 10:47:38 10:51:52 58° 286° (WNW) 10:56:05 145.826/435.025
DX 1 28 May 10:48:09 10:52:14 36° 97° (E) 10:56:19 434.975-435.025
SEEDS 28 May 10:56:15 10:58:56 16° 295° (WNW) 11:01:28 437.485
BUGSAT 1 28 May 10:57:01 11:01:04 53° 73° (ENE) 11:05:12 437.445
50 SAT 28 May 10:58:16 11:01:28 25° 94° (E) 11:04:41 437.505
CUBEBUG 1 28 May 11:03:08 11:05:30 15° 89° (E) 11:08:04 437.445
COMPASS 1 28 May 11:07:19 11:09:50 15° 295° (WNW) 11:12:11 437.405
VELOX 1 28 May 11:07:53 11:11:51 30° 96° (E) 11:15:50 145.980
GONETS M04 28 May 11:09:49 11:11:52 11° 74° (ENE) 11:14:39
ESTCUBE 1 28 May 11:16:34 11:20:10 23° 93° (E) 11:23:51 437.505/2401.250
TIGRISAT 28 May 11:18:32 11:22:43 31° 265° (W) 11:26:48 435.000
AAUSAT CUBESAT 2 28 May 11:18:32 11:20:41 14° 296° (WNW) 11:22:39 437.432
QB50P1 28 May 11:23:27 11:27:38 51° 260° (W) 11:31:51 145.935-145.965
POLYITAN 1 28 May 11:26:18 11:30:28 47° 261° (W) 11:34:40 437.675
UWE-3 28 May 11:27:39 11:31:32 31° 291° (WNW) 11:35:16 435.000/436.395/437.385
FUNcube-1 28 May 11:33:42 11:37:37 33° 290° (WNW) 11:41:24 145.935
DELFI C3 28 May 11:35:06 11:38:18 23° 292° (WNW) 11:41:26 145.870
AISAT 28 May 11:39:43 11:44:13 69° 102° (ESE) 11:48:41 437.250
CINEMA 3 28 May 11:39:44 11:41:52 13° 299° (WNW) 11:43:45 145.822/145.860
UNISAT 6 28 May 11:40:42 11:44:03 19° 269° (W) 11:47:15 437.425
DANDE 28 May 11:41:59 11:47:00 20° 80° (E) 11:52:50 436.750
Oscar 19 28 May 11:46:48 11:49:08 13° 59° (ENE) 11:51:42 437.125/150
HO-68 28 May 11:46:50 11:51:19 17° 307° (NW) 11:55:30 435.675
NANOSAT C BR1 28 May 11:55:06 11:58:39 24° 266° (W) 12:02:09 145.865
SO-50 28 May 11:56:27 12:01:26 71° 238° (WSW) 12:06:18 436.795
HUMSAT D 28 May 11:56:53 12:00:45 37° 289° (WNW) 12:04:33 437.325/437.525
CUSAT 1 28 May 12:01:25 12:08:02 36° 87° (E) 12:15:26 437.405
QB50P2 28 May 12:04:45 12:07:54 19° 268° (W) 12:10:57 145.880/145.840
UKube-1 28 May 12:13:34 12:17:23 30° 292° (WNW) 12:21:08 .
ZACube-1 28 May 12:16:21 12:18:31 13° 297° (WNW) 12:20:30 437.345
POPSAT HIP 1 28 May 12:17:23 12:19:56 15° 270° (W) 12:22:19 437.405
DUCHIFAT 1 28 May 12:18:05 12:20:37 15° 270° (W) 12:22:59 145.980
DX 1 28 May 12:24:50 12:28:17 22° 294° (WNW) 12:31:39 434.975-435.025
RS-15 28 May 12:26:43 12:35:53 28° 342° (NNW) 12:45:14 29.354- 29.394
50 SAT 28 May 12:32:55 12:36:08 25° 291° (WNW) 12:39:16 437.505
BUGSAT 1 28 May 12:34:44 12:36:56 14° 271° (W) 12:38:59 437.445
CUBEBUG 1 28 May 12:37:55 12:42:17 56° 287° (WNW) 12:46:38 437.445
VELOX 1 28 May 12:44:31 12:48:20 27° 292° (WNW) 12:52:04 145.980
Cosmos 2504 28 May 12:46:13 12:49:10 12° 305° (NW) 12:51:33 435.465 / 435.565
Gurwin Techsat 1B 28 May 12:50:04 12:52:53 15° 60° (ENE) 12:55:55 435.225
ESTCUBE 1 28 May 12:53:00 12:57:09 36° 290° (WNW) 13:01:16 437.505/2401.250
GONETS M04 28 May 12:58:28 13:07:06 64° 93° (E) 13:15:50
SPROUT 28 May 13:10:50 13:15:13 85° 284° (WNW) 13:19:32 437.525
AISAT 28 May 13:18:00 13:20:18 14° 298° (WNW) 13:22:24 437.250
DANDE 28 May 13:21:45 13:29:07 89° 280° (W) 13:37:45 436.750
Cosmos 2499 28 May 13:22:18 13:25:58 15° 80° (E) 13:30:01 435.465 / 435.565
Oscar 19 28 May 13:22:37 13:27:50 89° 268° (W) 13:33:04 437.125/150
ITUPSAT 1 28 May 13:27:57 13:31:02 17° 90° (E) 13:34:17 437.325
TISAT 1 28 May 13:28:13 13:32:30 76° 285° (WNW) 13:36:44 437.305
BEESAT 28 May 13:34:20 13:37:49 20° 92° (E) 13:41:26 436.000
ITAMSAT 1 28 May 13:40:30 13:45:19 42° 69° (ENE) 13:50:12 435.822/435.867
SWISSCUBE 28 May 13:42:43 13:46:44 27° 94° (E) 13:50:49 437.505
CUSAT 1 28 May 13:42:59 13:50:27 55° 287° (WNW) 13:58:37 437.405
AO-7 28 May 14:14:51 14:21:31 29° 55° (NE) 14:28:23 29.400- 29.500
Gurwin Techsat 1B 28 May 14:26:56 14:32:15 82° 255° (WSW) 14:37:37 435.225
JAS-2 28 May 14:31:38 14:36:48 27° 66° (ENE) 14:41:39 435.910
HORYU 2 28 May 14:41:50 14:45:26 25° 67° (ENE) 14:49:07 437.375
RS-15 28 May 14:43:59 14:53:08 27° 16° (NNE) 15:02:46 29.354- 29.394
KKS-1 28 May 14:49:33 14:52:56 21° 92° (E) 14:56:24 437.445
O/OREOS (USA 219) 28 May 14:53:47 14:57:45 31° 105° (ESE) 15:01:45 437.305
GONETS M04 28 May 14:57:00 15:04:40 31° 294° (WNW) 15:12:09
ITUPSAT 1 28 May 15:04:38 15:09:18 53° 288° (WNW) 15:13:57 437.325
Oscar 19 28 May 15:06:33 15:08:02 11° 275° (W) 15:09:10 437.125/150
DANDE 28 May 15:07:51 15:13:48 22° 303° (WNW) 15:19:55 436.750
Cosmos 2499 28 May 15:10:08 15:18:13 82° 97° (E) 15:25:45 435.465 / 435.565
BEESAT 28 May 15:11:22 15:15:55 45° 289° (WNW) 15:20:27 436.000
SWISSCUBE 28 May 15:20:19 15:24:39 34° 291° (WNW) 15:28:56 437.505
ITAMSAT 1 28 May 15:20:44 15:25:01 25° 267° (W) 15:29:13 435.822/435.867
CUSAT 1 28 May 15:31:38 15:35:21 13° 310° (NW) 15:38:39 437.405
STARS 28 May 15:49:04 15:53:27 56° 101° (E) 15:57:46 437.465
AO-7 28 May 16:05:25 16:13:42 73° 255° (WSW) 16:22:03 29.400- 29.500
JAS-2 28 May 16:15:19 16:21:45 51° 260° (W) 16:27:28 435.910
HORYU 2 28 May 16:17:51 16:21:57 34° 263° (W) 16:26:01 437.375
KKS-1 28 May 16:25:34 16:29:44 38° 290° (WNW) 16:33:51 437.445
Cubesat XI-IV 28 May 16:29:41 16:31:36 12° 58° (ENE) 16:33:46 437.490
MOZHAYETS 4 28 May 16:30:19 16:33:48 22° 92° (E) 16:37:22
O/OREOS (USA 219) 28 May 16:33:16 16:37:11 28° 303° (WNW) 16:41:03 437.305
YUBILEINY 28 May 16:43:32 16:48:55 18° 57° (ENE) 16:54:42 435.215
RS-15 28 May 16:57:19 17:08:41 60° 46° (NE) 17:20:36 29.354- 29.394
BEESAT 2 28 May 17:03:55 17:07:00 21° 113° (ESE) 17:10:13 435.950
Cosmos 2499 28 May 17:06:38 17:12:20 20° 297° (WNW) 17:17:29 435.465 / 435.565
STARS 28 May 17:26:45 17:29:29 16° 297° (WNW) 17:32:03 437.465
CUTE-I 28 May 17:44:41 17:49:49 53° 71° (ENE) 17:55:00 437.470
BEESAT 3 28 May 17:49:26 17:53:31 79° 123° (ESE) 17:57:39 437.485
AO-7 28 May 18:04:04 18:08:11 14° 276° (W) 18:11:41 29.400- 29.500
Cubesat XI-IV 28 May 18:05:38 18:10:56 81° 75° (ENE) 18:16:18 437.490
MOZHAYETS 4 28 May 18:06:55 18:11:11 39° 289° (WNW) 18:15:25
CUBESAT XI-V 28 May 18:13:47 18:17:23 22° 92° (E) 18:21:07 437.345
STRAND 1 28 May 18:37:35 18:40:40 16° 89° (E) 18:43:58 437.568
YUBILEINY 28 May 18:38:41 18:47:26 82° 81° (E) 18:56:09 435.215
BEESAT 2 28 May 18:40:58 18:44:53 40° 310° (NW) 18:48:49 435.950
AIST 2 28 May 18:41:50 18:46:03 65° 121° (ESE) 18:50:19 435.215
HO-68 28 May 18:42:07 18:46:36 19° 54° (NE) 18:51:22 435.675
Cosmos 2491 28 May 18:44:06 18:52:14 46° 88° (E) 19:00:32 435.465 / 435.565
PRISM 28 May 18:51:23 18:54:31 21° 93° (E) 18:57:46 437.425
RS-15 28 May 19:10:06 19:21:03 47° 249° (WSW) 19:32:12 29.354- 29.394
GOMX 1 28 May 19:10:17 19:14:16 23° 64° (ENE) 19:18:29 467.674
BRITE-PL 28 May 19:16:02 19:20:47 37° 68° (ENE) 19:25:52 437.365/2234.400
CUTE-I 28 May 19:26:15 19:30:16 21° 269° (W) 19:34:09 437.470
CINEMA 3 28 May 19:29:29 19:30:51 11° 60° (ENE) 19:32:29 145.822/145.860
BEESAT 3 28 May 19:29:34 19:32:04 15° 322° (NW) 19:34:28 437.485
Cubesat XI-IV 28 May 19:49:14 19:51:49 13° 273° (W) 19:54:06 437.490
CANX-2 28 May 19:49:43 19:53:22 29° 70° (ENE) 19:57:05 2200.000
CUBESAT XI-V 28 May 19:50:36 19:55:01 40° 289° (WNW) 19:59:24 437.345
CUTE 1.7 + AOD 2 28 May 19:53:00 19:56:38 28° 69° (ENE) 20:00:19 437.475
DOVE 4 28 May 20:01:04 20:05:54 42° 70° (ENE) 20:10:55 437.250
AIST 1 28 May 20:04:56 20:08:50 37° 92° (E) 20:12:49
CUBEBUG 2 28 May 20:07:51 20:09:55 13° 62° (ENE) 20:12:11 437.445
Oscar 11 28 May 20:09:45 20:11:36 13° 63° (ENE) 20:13:39 145.826/435.025
SEEDS 28 May 20:12:22 20:16:15 37° 71° (ENE) 20:20:10 437.485
STRAND 1 28 May 20:15:17 20:20:24 64° 287° (WNW) 20:25:29 437.568
AIST 2 28 May 20:22:01 20:25:05 18° 320° (NW) 20:28:03 435.215
COMPASS 1 28 May 20:22:35 20:26:27 39° 72° (ENE) 20:30:22 437.405
HO-68 28 May 20:26:15 20:33:26 85° 73° (ENE) 20:40:40 435.675
PRISM 28 May 20:26:18 20:30:05 34° 290° (WNW) 20:33:49 437.425
AAUSAT CUBESAT 2 28 May 20:33:01 20:36:57 43° 72° (ENE) 20:40:55 437.432
Cosmos 2504 28 May 20:37:00 20:43:57 49° 75° (ENE) 20:50:54 435.465 / 435.565
YUBILEINY 28 May 20:37:09 20:43:20 21° 280° (W) 20:49:07 435.215
M-CUBED/EXP-1 PRIME 28 May 20:39:23 20:42:41 68° 290° (WNW) 20:45:59 437.505
Cosmos 2491 28 May 20:40:57 20:49:14 42° 289° (WNW) 20:57:28 435.465 / 435.565
AUBIESAT-1 28 May 20:45:43 20:49:00 66° 291° (WNW) 20:52:19 437.475
GOMX 1 28 May 20:46:54 20:51:59 53° 262° (W) 20:57:19 467.674
DELFI C3 28 May 20:48:33 20:51:36 22° 68° (ENE) 20:54:44 145.870
UWE-3 28 May 20:49:13 20:53:01 26° 68° (ENE) 20:56:54 435.000/436.395/437.385
FUNcube-1 28 May 20:54:29 20:57:58 22° 67° (ENE) 21:01:33 145.935
BRITE-PL 28 May 20:54:45 20:59:21 31° 268° (W) 21:04:10 437.365/2234.400
CINEMA 3 28 May 21:02:17 21:07:18 80° 75° (ENE) 21:12:22 145.822/145.860
HUMSAT D 28 May 21:15:05 21:17:48 17° 65° (ENE) 21:20:38 437.325/437.525
